Weather History for K3I2 - April, 2014

Change the Weather History Date:

Friday, April 25, 2014

  Actual Average (KHTS) Record (KHTS)
Temperature  
Mean Temperature 58 °F 59 °F  
Max Temperature 71 °F 71 °F 91 °F (1960)
Min Temperature 44 °F 47 °F 28 °F (1967)
Degree Days  
Heating Degree Days 8 7  
Month to date heating degree days 259  
Since 1 July heating degree days 4356  
Cooling Degree Days 0 1  
Month to date cooling degree days 24  
Year to date cooling degree days 29  
Growing Degree Days 8 (Base 50)    
Moisture  
Dew Point 46 °F    
Average Humidity 74    
Maximum Humidity 94    
Minimum Humidity 45    
Precipitation  
Precipitation 0.00 in 0.13 in 1.96 in (1908)
Month to date precipitation 2.83  
Year to date precipitation 12.77  
Snow  
Snow 0.00 in - - ()
Month to date snowfall  
Since 1 September snowfall  
Snow Depth -    
Sea Level Pressure  
Sea Level Pressure 29.79 in    
Wind  
Wind Speed 2 mph (WSW)    
Max Wind Speed 15 mph    
Max Gust Speed 23 mph    
Visibility 9 miles    
Events Rain    
T = Trace of Precipitation, MM = Missing Value Source: NWS Daily Summary

Daily Weather History Graph

Daily Weather History Graph

Search for Another Location

Airport or City:

Trip Planner

Search our weather history database for the weather conditions in past years. The results will help you decide how hot, cold, wet, or windy it might be!

Date:

Astronomy

Apr. 25, 2014 Rise Set
Actual Time 6:38 AM EDT 8:15 PM EDT
Civil Twilight 6:09 AM EDT 8:43 PM EDT
Nautical Twilight 5:35 AM EDT 9:17 PM EDT
Astronomical Twilight 4:59 AM EDT 9:54 PM EDT
Moon 4:23 AM EDT (4/25) 4:38 PM EDT (4/25)
Length of Visible Light 14h 33m
Length of Day
13h 37m
Waning Crescent, 15% of the Moon is Illuminated
Apr 25
Waning Crescent
Apr 29
New
May 6
First Quarter
May 14
Full
May 21
Last Quarter

Hourly Weather History & Observations

Time (EDT) Temp. Dew Point Humidity Pressure Visibility Wind Dir Wind Speed Gust Speed Precip Events Conditions
12:15 AM 48.2 °F 30.2 °F 50% 29.85 in 10.0 mi Calm Calm - N/A   Clear
12:35 AM 46.4 °F 30.2 °F 53% 29.85 in 10.0 mi Calm Calm - N/A   Clear
12:55 AM 46.4 °F 30.2 °F 53% 29.84 in 10.0 mi Calm Calm - N/A   Clear
1:15 AM 46.4 °F 32.0 °F 57% 29.83 in 10.0 mi Calm Calm - N/A   Clear
1:35 AM 44.6 °F 32.0 °F 61% 29.84 in 10.0 mi Calm Calm - N/A   Clear
1:55 AM 44.6 °F 32.0 °F 61% 29.83 in 10.0 mi Calm Calm - N/A   Clear
2:15 AM 44.6 °F 32.0 °F 61% 29.82 in 10.0 mi Calm Calm - N/A   Clear
2:35 AM 44.6 °F 32.0 °F 61% 29.81 in 10.0 mi Calm Calm - N/A   Clear
2:55 AM 44.6 °F 32.0 °F 61% 29.81 in 10.0 mi Calm Calm - N/A   Clear
3:15 AM 44.6 °F 33.8 °F 66% 29.80 in 10.0 mi Calm Calm - N/A   Clear
3:35 AM 44.6 °F 35.6 °F 71% 29.79 in 10.0 mi Calm Calm - N/A   Clear
3:55 AM 46.4 °F 33.8 °F 62% 29.78 in 10.0 mi Calm Calm - N/A   Clear
4:15 AM 46.4 °F 33.8 °F 62% 29.77 in 10.0 mi Calm Calm - N/A   Clear
4:35 AM 44.6 °F 35.6 °F 71% 29.76 in 10.0 mi Calm Calm - N/A   Clear
4:55 AM 44.6 °F 35.6 °F 71% 29.75 in 10.0 mi Calm Calm - N/A   Clear
5:15 AM 44.6 °F 37.4 °F 76% 29.74 in 10.0 mi Calm Calm - N/A   Scattered Clouds
5:35 AM 46.4 °F 37.4 °F 71% 29.73 in 10.0 mi Calm Calm - N/A   Mostly Cloudy
5:55 AM 48.2 °F 39.2 °F 71% 29.73 in 10.0 mi Calm Calm - N/A   Mostly Cloudy
6:15 AM 50.0 °F 41.0 °F 71% 29.73 in 10.0 mi Calm Calm - N/A   Overcast
6:35 AM 57.2 °F 39.2 °F 51% 29.73 in 10.0 mi Calm Calm - N/A   Mostly Cloudy
6:55 AM 53.6 °F 41.0 °F 62% 29.73 in 10.0 mi Calm Calm - N/A   Mostly Cloudy
7:15 AM 55.4 °F 41.0 °F 58% 29.74 in 10.0 mi SSW 3.5 mph - N/A   Overcast
7:35 AM 60.8 °F 39.2 °F 45% 29.75 in 10.0 mi SSW 8.1 mph - N/A Rain Light Rain
7:55 AM 59.0 °F 46.4 °F 63% 29.76 in 5.0 mi SSW 9.2 mph 17.3 mph N/A Rain Rain
8:15 AM 55.4 °F 50.0 °F 82% 29.76 in 5.0 mi Calm Calm - N/A Rain Rain
8:35 AM 55.4 °F 51.8 °F 88% 29.77 in 4.0 mi SW 6.9 mph - N/A Rain Rain
8:55 AM 55.4 °F 51.8 °F 88% 29.77 in 4.0 mi Calm Calm - N/A Rain Rain
9:15 AM 55.4 °F 53.6 °F 94% 29.76 in 3.0 mi Calm Calm - N/A Rain Light Rain
9:35 AM 55.4 °F 53.6 °F 94% 29.76 in 5.0 mi Calm Calm - N/A Rain Light Rain
9:55 AM 55.4 °F 53.6 °F 94% 29.76 in 3.0 mi Calm Calm - N/A Rain Rain
10:15 AM 55.4 °F 53.6 °F 94% 29.77 in 1.8 mi Calm Calm - N/A Rain Rain
10:35 AM 55.4 °F 53.6 °F 94% 29.76 in 1.8 mi South 3.5 mph - N/A Rain Light Rain
10:55 AM 55.4 °F 53.6 °F 94% 29.77 in 4.0 mi South 6.9 mph - N/A Rain Heavy Rain
11:15 AM 55.4 °F 53.6 °F 94% 29.74 in 3.0 mi SE 4.6 mph - N/A Rain Rain
11:35 AM 55.4 °F 53.6 °F 94% 29.71 in 4.0 mi SE 6.9 mph - N/A Rain Light Rain
11:55 AM 57.2 °F 53.6 °F 88% 29.70 in 7.0 mi SE 5.8 mph - N/A Rain Light Rain
12:15 PM 57.2 °F 53.6 °F 88% 29.71 in 10.0 mi South 6.9 mph - N/A   Scattered Clouds
12:35 PM 59.0 °F 55.4 °F 88% 29.70 in 10.0 mi SSE 4.6 mph - N/A   Clear
12:55 PM 60.8 °F 55.4 °F 82% 29.70 in 10.0 mi SW 9.2 mph - N/A   Scattered Clouds
1:15 PM 62.6 °F 57.2 °F 82% 29.70 in 10.0 mi SW 5.8 mph - N/A   Mostly Cloudy
1:35 PM 62.6 °F 55.4 °F 77% 29.69 in 10.0 mi SW 10.4 mph - N/A   Overcast
1:55 PM 62.6 °F 55.4 °F 77% 29.70 in 10.0 mi SW 8.1 mph - N/A   Overcast
2:15 PM 64.4 °F 57.2 °F 77% 29.70 in 10.0 mi SW 8.1 mph - N/A   Overcast
2:35 PM 68.0 °F 59.0 °F 73% 29.70 in 10.0 mi SW 9.2 mph - N/A   Mostly Cloudy
2:55 PM 68.0 °F 59.0 °F 73% 29.70 in 10.0 mi WSW 9.2 mph - N/A   Mostly Cloudy
3:15 PM 68.0 °F 59.0 °F 73% 29.69 in 10.0 mi WSW 11.5 mph - N/A   Overcast
3:35 PM 71.6 °F 57.2 °F 60% 29.70 in 10.0 mi WSW 15.0 mph - N/A   Mostly Cloudy
3:55 PM 66.2 °F 57.2 °F 73% 29.70 in 5.0 mi WSW 13.8 mph 18.4 mph N/A Rain Rain
4:15 PM 62.6 °F 59.0 °F 88% 29.73 in 1.8 mi West 6.9 mph - N/A Rain Light Rain
4:35 PM 62.6 °F 55.4 °F 77% 29.77 in 10.0 mi WNW 9.2 mph 23.0 mph N/A   Overcast
4:55 PM 62.6 °F 53.6 °F 72% 29.78 in 10.0 mi West 4.6 mph - N/A   Overcast
5:15 PM 62.6 °F 55.4 °F 77% 29.79 in 10.0 mi West 6.9 mph - N/A   Mostly Cloudy
5:35 PM 64.4 °F 53.6 °F 68% 29.80 in 10.0 mi West 9.2 mph - N/A   Mostly Cloudy
5:55 PM 64.4 °F 53.6 °F 68% 29.81 in 10.0 mi NW 4.6 mph - N/A   Mostly Cloudy
6:15 PM 62.6 °F 51.8 °F 68% 29.81 in 10.0 mi West 5.8 mph - N/A   Overcast
6:35 PM 62.6 °F 51.8 °F 68% 29.82 in 10.0 mi WNW 8.1 mph 16.1 mph N/A   Overcast
6:55 PM 62.6 °F 51.8 °F 68% 29.84 in 10.0 mi NW 5.8 mph - N/A   Mostly Cloudy
7:15 PM 62.6 °F 46.4 °F 55% 29.85 in 10.0 mi WNW 10.4 mph 17.3 mph N/A   Scattered Clouds
7:35 PM 60.8 °F 46.4 °F 59% 29.86 in 10.0 mi West 5.8 mph 19.6 mph N/A   Clear
7:55 PM 60.8 °F 46.4 °F 59% 29.87 in 10.0 mi West 3.5 mph - N/A   Clear
8:15 PM 59.0 °F 46.4 °F 63% 29.89 in 10.0 mi West 3.5 mph - N/A   Clear
8:35 PM 59.0 °F 44.6 °F 59% 29.89 in 10.0 mi Calm Calm - N/A   Clear
8:55 PM 53.6 °F 46.4 °F 77% 29.91 in 10.0 mi Calm Calm - N/A   Clear
9:15 PM 51.8 °F 46.4 °F 82% 29.92 in 10.0 mi Calm Calm - N/A   Clear
9:35 PM 51.8 °F 46.4 °F 82% 29.94 in 10.0 mi Calm Calm - N/A   Clear
9:55 PM 50.0 °F 44.6 °F 82% 29.95 in 10.0 mi Calm Calm - N/A   Clear
10:15 PM 50.0 °F 44.6 °F 82% 29.95 in 10.0 mi Calm Calm - N/A   Clear
10:35 PM 48.2 °F 44.6 °F 87% 29.96 in 10.0 mi Calm Calm - N/A   Clear
10:55 PM 46.4 °F 44.6 °F 93% 29.96 in 10.0 mi Calm Calm - N/A   Clear
11:15 PM 46.4 °F 44.6 °F 93% 29.96 in 7.0 mi Calm Calm - N/A   Clear
11:35 PM 46.4 °F 44.6 °F 93% 29.96 in 5.0 mi Calm Calm - N/A   Clear